Regional Weather Roundup
Issued by NWS

Home | Current Version | Previous Version | Graphics & Text | Print | Product List | Glossary Off
Versions: 1 2 3 4 5 6 7 8 9 10 11 12 13 14 15 16 17 18 19 20 21 22 23 24 25 26 27 28 29 30 31 32 33 34 35 36 37 38 39 40 41 42 43 44 45 46 47 48 49 50

000
ASUS43 KMKX 010021
RWRWI

WISCONSIN REGIONAL WEATHER ROUNDUP
NATIONAL WEATHER SERVICE MILWAUKEE/SULLIVAN WI
700 PM CDT TUE MAY 31 2016

NOTE: "FAIR" INDICATES FEW OR NO CLOUDS BELOW 12,000 FEET WITH NO
SIGNIFICANT WEATHER AND/OR OBSTRUCTIONS TO VISIBILITY.

WIZ001-002-006>008-014>016-023>028-010100-
NORTHWEST WISCONSIN

CITY           SKY/WX    TMP DP  RH WIND       PRES   REMARKS
SUPERIOR ARPT  CLOUDY    43  41  94 NE12G24   29.92R
6HR MIN TEMP:  41; 6HR MAX TEMP:  44; 6HR PCP:  0.19;

ASHLAND        RAIN      47  46  97 N6        29.90S FOG
6HR MIN TEMP:  47; 6HR MAX TEMP:  53; 6HR PCP:  0.69;

HAYWARD        LGT RAIN  65  62  90 SE8       29.87R
6HR MIN TEMP:  65; 6HR MAX TEMP:  70; 6HR PCP:  0.10;

SIREN          CLOUDY    69  60  72 S6        29.85R
6HR MIN TEMP:  68; 6HR MAX TEMP:  72;

CUMBERLAND     LGT RAIN  63  61  94 SE9       29.86R
RICE LAKE      RAIN      63  60  91 SE14      29.88S
6HR MIN TEMP:  63; 6HR MAX TEMP:  71; 6HR PCP:  0.21;

CHETEK         RAIN      61  61  98 SE8       29.88S
6HR MIN TEMP:  61; 6HR MAX TEMP:  74; 6HR PCP:  0.26;

LADYSMITH      RAIN      61  59  95 E7        29.92F
6HR MIN TEMP:  60; 6HR MAX TEMP:  77; 6HR PCP:  0.84;

EAU CLAIRE     CLOUDY    63  62  97 E7        29.86F
6HR MIN TEMP:  61; 6HR MAX TEMP:  80; 6HR PCP:  0.46;

MENOMONIE      CLOUDY    64  64 100 E9        29.88R
6HR MIN TEMP:  63; 6HR MAX TEMP:  77; 6HR PCP:  0.74;

NEW RICHMOND   PTSUNNY   67  60  77 S7        29.86R
6HR MIN TEMP:  67; 6HR MAX TEMP:  72;

OSCEOLA        PTSUNNY   69  62  79 S6        29.87R
6HR MIN TEMP:  69; 6HR MAX TEMP:  72;

$$

WIZ003>005-009-010-017-018-010100-
NORTH CENTRAL WISCONSIN

CITY           SKY/WX    TMP DP  RH WIND       PRES   REMARKS
MANITOWISH WTR CLOUDY    66  56  70 S14G21    29.93R
ARBOR VITAE      N/A     67  56  66 S12G23    29.94R
6HR MIN TEMP:  67; 6HR MAX TEMP:  77; 6HR PCP:  0.03;

WOODRUFF         N/A     67  56  66 S12G23    29.94R
6HR MIN TEMP:  67; 6HR MAX TEMP:  77; 6HR PCP:  0.03;

RHINELANDER    CLOUDY    65  53  65 SE10      29.96R
6HR MIN TEMP:  65; 6HR MAX TEMP:  74;

EAGLE RIVER    LGT RAIN  64  51  61 SE8       29.96R
6HR MIN TEMP:  64; 6HR MAX TEMP:  73;

LAND O LAKES   PTSUNNY   67  51  56 S12G21    29.96R
6HR MIN TEMP:  67; 6HR MAX TEMP:  75;

PHILLIPS       HVY RAIN  61  57  88 CALM      29.93R
6HR MIN TEMP:  61; 6HR MAX TEMP:  74; 6HR PCP:  0.06;

TOMAHAWK       LGT RAIN  63  55  76 SE3       29.94R
6HR MIN TEMP:  63; 6HR MAX TEMP:  73;

MEDFORD        LGT RAIN  64  61  90 CALM      29.93S
6HR MIN TEMP:  64; 6HR MAX TEMP:  73;

MERRILL        CLOUDY    65  58  79 SE6       29.95R
$$

WIZ029-030-035-036-043>047-010100-
CENTRAL WISCONSIN

CITY           SKY/WX    TMP DP  RH WIND       PRES   REMARKS
WAUSAU         CLOUDY    70  58  65 SE9       29.91S
6HR MIN TEMP:  69; 6HR MAX TEMP:  75; 6HR PCP: TRACE;

MOSINEE        PTSUNNY   66  61  82 SE6       29.94R
MARSHFIELD     CLOUDY    69  60  73 SE6       29.90S
6HR MIN TEMP:  69; 6HR MAX TEMP:  77; 6HR PCP: TRACE;

STEVENS POINT  CLOUDY    67  58  72 S10G17    29.94R
6HR MIN TEMP:  66; 6HR MAX TEMP:  71;

WAUPACA        CLOUDY    70  60  72 SE8       29.95R
6HR MIN TEMP:  70; 6HR MAX TEMP:  75;

WAUTOMA        PTSUNNY  N/A N/A N/A SE12      29.94R
WISC RAPIDS    CLOUDY    70  58  65 S9G21     29.92S
6HR MIN TEMP:  70; 6HR MAX TEMP:  78; 6HR PCP: TRACE;

CAMP DOUGLAS   LGT RAIN  70  68  94 S12       29.90R
$$

WIZ011>013-019>022-031-037>040-048>050-010100-
NORTHEAST WISCONSIN

CITY           SKY/WX    TMP DP  RH WIND       PRES   REMARKS
ANTIGO         CLOUDY    62  56  80 SE8       29.95F
6HR MIN TEMP:  62; 6HR MAX TEMP:  69;

SHAWANO        DRIZZLE   66  57  72 SE7       29.96R
6HR MIN TEMP:  66; 6HR MAX TEMP:  72;

OCONTO         PTSUNNY   62  55  76 E5        29.97S
6HR MIN TEMP:  62; 6HR MAX TEMP:  67;

STURGEON BAY   CLOUDY    61  48  63 E9        29.99F
6HR MIN TEMP:  61; 6HR MAX TEMP:  68;

GREEN BAY      CLOUDY    67  57  70 E8        29.96S
6HR MIN TEMP:  64; 6HR MAX TEMP:  69;

MANITOWOC      CLOUDY    60  51  72 NE5       29.99S
6HR MIN TEMP:  60; 6HR MAX TEMP:  65;

APPLETON       PTSUNNY   66  55  68 SE14      29.94S
CLINTONVILLE   CLOUDY    68  55  64 S8        29.95R
OSHKOSH        LGT RAIN  66  59  78 S9        29.94S
6HR MIN TEMP:  66; 6HR MAX TEMP:  74; 6HR PCP: TRACE;

$$

WIZ032>034-041-042-053>061-010100-
SOUTHWEST WISCONSIN

CITY           SKY/WX    TMP DP  RH WIND       PRES   REMARKS
LA CROSSE      RAIN      64  63  96 E5        29.88S FOG
6HR MIN TEMP:  64; 6HR MAX TEMP:  84; 6HR PCP:  1.26;

SPARTA         HVY RAIN  63  62  98 SW5       29.93R VSB 1
6HR MIN TEMP:  63; 6HR MAX TEMP:  81; 6HR PCP:  0.49;

VIROQUA        CLOUDY    63  62  94 W15       29.93R
6HR MIN TEMP:  63; 6HR MAX TEMP:  79; 6HR PCP:  0.13;

BOSCOBEL       NOT AVBL
PRAIRIE DU CHI CLOUDY    70  60  69 W13G18    29.89R
6HR MIN TEMP:  69; 6HR MAX TEMP:  80; 6HR PCP:  0.03;

PLATTEVILLE    CLOUDY    71  64  80 SE10      29.90S
6HR MIN TEMP:  67; 6HR MAX TEMP:  72;

$$

WIZ056-057-062-063-064-067-068-010100-
SOUTH CENTRAL WISCONSIN

CITY           SKY/WX    TMP DP  RH WIND       PRES   REMARKS
REEDSBURG      CLOUDY    69  61  76 S7        29.91S
6HR MIN TEMP:  64; 6HR MAX TEMP:  73; 6HR PCP:  0.02;

BARABOO/DELLS  CLOUDY    69  59  72 SE8       29.92S
6HR MIN TEMP:  64; 6HR MAX TEMP:  72; 6HR PCP:  0.08;

LONE ROCK      CLOUDY    71  61  70 SE8       29.91S
6HR MIN TEMP:  67; 6HR MAX TEMP:  75; 6HR PCP: TRACE;

MINERAL POINT  CLOUDY    70  63  78 SE8       29.92R
MADISON        CLOUDY    71  60  68 SE13      29.92F
6HR MIN TEMP:  66; 6HR MAX TEMP:  72; 6HR PCP:  0.05;

MIDDLETON      CLOUDY    71  59  65 SE9       29.92F
6HR MIN TEMP:  68; 6HR MAX TEMP:  74; 6HR PCP:  0.01;

WATERTOWN      CLOUDY    65  64  94 SE8       29.93F
6HR MIN TEMP:  64; 6HR MAX TEMP:  68; 6HR PCP:  0.26;

MONROE         CLOUDY    68  61  77 E6        29.93S
JANESVILLE     CLOUDY    68  63  83 SE12G17   29.93F
$$

WIZ051-052-058>065-066-070>072-010100-
SOUTHEAST WISCONSIN

CITY           SKY/WX    TMP DP  RH WIND       PRES   REMARKS
MILWAUKEE      LGT RAIN  67  62  84 SE10      29.99S
6HR MIN TEMP:  66; 6HR MAX TEMP:  73; 6HR PCP:  0.02;

WAUKESHA       MOSUNNY   64  61  88 SE5       29.99F
MILWAUKEE/TIMM CLOUDY    66  59  77 SE5       29.99F
RACINE         LGT RAIN  68  62  81 CALM      30.00F
6HR MIN TEMP:  67; 6HR MAX TEMP:  75; 6HR PCP:  0.02;

BURLINGTON     CLOUDY    64  62  93 E7        29.97F
6HR MIN TEMP:  63; 6HR MAX TEMP:  77; 6HR PCP:  0.06;

KENOSHA        CLOUDY    66  63  90 E7        29.97F
6HR MIN TEMP:  66; 6HR MAX TEMP:  75; 6HR PCP:  0.08;

FOND DU LAC    CLOUDY    66  60  81 S13       29.95S
6HR MIN TEMP:  66; 6HR MAX TEMP:  76; 6HR PCP:  0.03;

SHEBOYGAN      CLOUDY    58  52  80 E8        29.98F
6HR MIN TEMP:  58; 6HR MAX TEMP:  67; 6HR PCP:  0.01;

WEST BEND      RAIN      64  61  88 SE5       29.98R
JUNEAU         PTSUNNY   65  60  84 SE9       29.96S
6HR MIN TEMP:  64; 6HR MAX TEMP:  73; 6HR PCP:  0.04;

$$

LSZ147-162-010100-
LAKE SUPERIOR

STATION/POSITION TIME  TEMP    WIND        PRES    WAVE
                       AIR SEA DIR/SP/G            HT/PER
                 (UTC) (F)     (DEG/KT/KT) (MB)    (FT/S)
W MID LAKE BUOY  2350   41 38   60/ 17/ 19 1013.2F   4/ 5
DEVILS ISLAND    0000   42     120/  9/ 15 1014.5R
SAXON HARBOR     2300   48      90/  3/  4 1012.2
$$

LMZ867-665-643>646-010100-
LAKE MICHIGAN

STATION/POSITION TIME  TEMP    WIND        PRES    WAVE
                       AIR SEA DIR/SP/G            HT/PER
                 (UTC) (F)     (DEG/KT/KT) (MB)    (FT/S)
CHAMBERS ISLAND  2300   62      60/  6/ 10 1015.9
N MID LAKE BUOY  2350   53 48   80/ 10/ 10 1015.4F   1
NORTHPORT PIER   2300   58     130/  3/  5 1015.9F
SISTER BAY       2350   63     110/ 14/ 20   N/A
ALGOMA LAKESHORE 2317           50/ 13/ 18  C1F1C2F2C3F3C4F4C5F5C6F6C7F7C8M1C9M2Ca!


USA.gov is the U.S. government's official web portal to all federal, state and local government web resources and services.